Location: Brachstadt
(48.6975°N, 10.6755°E)
Time: 05:50:03
(UTC+00:00)

Cosmos 2082 Rocket - Pass Details

Date: 18 September 2020
Orbit: 834 x 853 km, 71.0° (Epoch: 27 October)

Event Time Altitude Azimuth Distance (km) Brightness Sun altitude
Rises 18:55:21 0° 336° (NNW) 3,393 6.1 -15.7°
Reaches altitude 10° 18:59:01 10° 359° (N) 2,456 4.9 -16.3°
Maximum altitude 19:02:06 15° 33° (NNE) 2,134 4.2 -16.7°
Enters shadow 19:04:32 12° 61° (ENE) 2,339 4.2 -17.1°
